| time (UTC) | temp F | wind direction | speed knots | gust knots | rain 1hr in | rain 24hr in | rain mn in | humidity % | barometer mb |
| 20260502224505 | 64 | 345 | 2.6 | 7.8 | 0.00 | 0.01 | 0.01 | 40 | 1012.2 |
| 20260502224005 | 64 | 22 | 2.6 | 7.8 | 0.00 | 0.01 | 0.01 | 41 | 1012.2 |
| 20260502223505 | 64 | 322 | 2.6 | 6.1 | 0.00 | 0.01 | 0.01 | 40 | 1012.2 |
| 20260502222006 | 65 | 352 | 1.7 | 8.7 | 0.00 | 0.01 | 0.01 | 39 | 1012.2 |
| 20260502221505 | 65 | 11 | 2.6 | 8.7 | 0.00 | 0.01 | 0.01 | 40 | 1012.2 |
| 20260502221005 | 65 | 22 | 1.7 | 6.1 | 0.00 | 0.01 | 0.01 | 39 | 1012.2 |
| 20260502220505 | 65 | 331 | 2.6 | 8.7 | 0.00 | 0.01 | 0.01 | 38 | 1012.2 |
| 20260502220004 | 65 | 2 | 1.7 | 10.4 | 0.00 | 0.01 | 0.01 | 39 | 1012.2 |
| 20260502215505 | 65 | 328 | 0.9 | 7.0 | 0.00 | 0.01 | 0.01 | 39 | 1012.2 |
| 20260502215005 | 65 | 293 | 4.3 | 12.2 | 0.00 | 0.01 | 0.01 | 36 | 1012.2 |
| 20260502214006 | 66 | 303 | 2.6 | 10.4 | 0.00 | 0.01 | 0.01 | 36 | 1012.2 |
| 20260502213505 | 66 | 356 | 1.7 | 5.2 | 0.00 | 0.01 | 0.01 | 37 | 1012.2 |
| 20260502213005 | 65 | 325 | 1.7 | 6.1 | 0.00 | 0.01 | 0.01 | 36 | 1012.2 |
| 20260502212504 | 66 | 6 | 2.6 | 12.2 | 0.00 | 0.01 | 0.01 | 35 | 1012.2 |
| 20260502212006 | 66 | 0 | 1.7 | 5.2 | 0.00 | 0.01 | 0.01 | 35 | 1012.2 |
| 20260502211006 | 67 | 329 | 2.6 | 5.2 | 0.00 | 0.01 | 0.01 | 34 | 1012.2 |
| 20260502210506 | 66 | 306 | 2.6 | 10.4 | 0.00 | 0.01 | 0.01 | 34 | 1012.2 |
| 20260502210007 | 66 | 355 | 5.2 | 8.7 | 0.00 | 0.01 | 0.01 | 32 | 1012.2 |
| 20260502205504 | 66 | 350 | 5.2 | 11.3 | 0.00 | 0.01 | 0.01 | 33 | 1012.2 |
| 20260502205005 | 67 | 331 | 2.6 | 6.1 | 0.00 | 0.01 | 0.01 | 32 | 1012.2 |
| 20260502204505 | 67 | 30 | 2.6 | 8.7 | 0.00 | 0.01 | 0.01 | 34 | 1012.2 |
| 20260502204005 | 67 | 353 | 3.5 | 11.3 | 0.00 | 0.01 | 0.01 | 32 | 1012.5 |
| 20260502203506 | 67 | 339 | 5.2 | 11.3 | 0.00 | 0.01 | 0.01 | 31 | 1012.5 |
| 20260502202006 | 67 | 14 | 2.6 | 10.4 | 0.00 | 0.01 | 0.01 | 35 | 1012.5 |
| 20260502201005 | 66 | 320 | 3.5 | 8.7 | 0.00 | 0.01 | 0.01 | 33 | 1012.5 |
| 20260502200505 | 67 | 345 | 4.3 | 10.4 | 0.00 | 0.01 | 0.01 | 34 | 1012.5 |
| 20260502200005 | 67 | 289 | 5.2 | 13.0 | 0.00 | 0.01 | 0.01 | 32 | 1012.5 |
| 20260502195506 | 66 | 0 | 4.3 | 10.4 | 0.00 | 0.01 | 0.01 | 33 | 1012.5 |
| 20260502194505 | 67 | 336 | 5.2 | 13.0 | 0.00 | 0.01 | 0.01 | 33 | 1012.5 |
| 20260502193505 | 66 | 340 | 4.3 | 13.0 | 0.00 | 0.01 | 0.01 | 37 | 1012.5 |
| 20260502192505 | 66 | 348 | 4.3 | 11.3 | 0.00 | 0.01 | 0.01 | 40 | 1012.5 |
| 20260502192006 | 66 | 350 | 2.6 | 10.4 | 0.00 | 0.01 | 0.01 | 40 | 1012.5 |
| 20260502191506 | 67 | 348 | 2.6 | 7.0 | 0.00 | 0.01 | 0.01 | 39 | 1012.5 |
| 20260502191004 | 67 | 12 | 3.5 | 10.4 | 0.00 | 0.01 | 0.01 | 38 | 1012.5 |
| 20260502190505 | 67 | 333 | 2.6 | 7.8 | 0.00 | 0.01 | 0.01 | 37 | 1012.5 |
| 20260502190006 | 66 | 323 | 6.1 | 12.2 | 0.00 | 0.01 | 0.01 | 38 | 1012.5 |
| 20260502185505 | 66 | 302 | 2.6 | 7.8 | 0.00 | 0.01 | 0.01 | 39 | 1012.5 |
| 20260502185005 | 67 | 298 | 4.3 | 12.2 | 0.00 | 0.01 | 0.01 | 40 | 1012.5 |
| 20260502184505 | 67 | 320 | 2.6 | 5.2 | 0.00 | 0.01 | 0.01 | 40 | 1012.5 |
| 20260502184005 | 67 | 14 | 2.6 | 7.0 | 0.00 | 0.01 | 0.01 | 41 | 1012.5 |
| 20260502183505 | 66 | 302 | 2.6 | 10.4 | 0.00 | 0.01 | 0.01 | 40 | 1012.5 |
| 20260502182506 | 66 | 319 | 2.6 | 7.0 | 0.00 | 0.01 | 0.01 | 42 | 1012.5 |
| 20260502182005 | 66 | 330 | 2.6 | 7.0 | 0.00 | 0.01 | 0.01 | 40 | 1012.5 |
| 20260502181506 | 67 | 301 | 1.7 | 4.3 | 0.00 | 0.01 | 0.01 | 43 | 1012.5 |
| 20260502180505 | 66 | 351 | 2.6 | 6.1 | 0.00 | 0.01 | 0.01 | 43 | 1012.5 |
| 20260502170505 | 65 | 38 | 3.5 | 10.4 | 0.00 | 0.01 | 0.01 | 47 | 1012.5 |
| 20260502164005 | 65 | 319 | 4.3 | 13.9 | 0.00 | 0.01 | 0.01 | 48 | 1012.2 |
| 20260502163504 | 65 | 0 | 2.6 | 7.8 | 0.00 | 0.01 | 0.01 | 49 | 1012.2 |
| 20260502163006 | 65 | 3 | 3.5 | 7.0 | 0.00 | 0.01 | 0.01 | 51 | 1012.2 |
| 20260502162505 | 64 | 319 | 3.5 | 10.4 | 0.00 | 0.01 | 0.01 | 50 | 1012.2 |
| 20260502162005 | 65 | 353 | 1.7 | 5.2 | 0.00 | 0.01 | 0.01 | 51 | 1012.2 |
| 20260502161505 | 64 | 326 | 1.7 | 7.8 | 0.00 | 0.01 | 0.01 | 54 | 1012.2 |
| 20260502161004 | 63 | 358 | 3.5 | 7.0 | 0.00 | 0.01 | 0.01 | 55 | 1012.2 |
| 20260502151506 | 62 | 306 | 1.7 | 6.1 | 0.00 | 0.01 | 0.01 | 57 | 1012.2 |
| 20260502150505 | 62 | 346 | 2.6 | 5.2 | 0.00 | 0.01 | 0.01 | 57 | 1012.2 |
| 20260502130507 | 54 | 21 | 0.9 | 2.6 | 0.00 | 0.01 | 0.01 | 68 | 1012.2 |
| 20260502123005 | 54 | 327 | 0.9 | 2.6 | 0.00 | 0.01 | 0.01 | 67 | 1011.5 |
| 20260502122505 | 54 | 42 | 0.0 | 1.7 | 0.00 | 0.01 | 0.01 | 66 | 1011.5 |
| 20260502122005 | 54 | 294 | 0.9 | 2.6 | 0.00 | 0.01 | 0.01 | 67 | 1011.5 |
| 20260502121505 | 54 | 314 | 0.9 | 2.6 | 0.00 | 0.01 | 0.01 | 67 | 1011.5 |
| 20260502121007 | 54 | 300 | 0.9 | 2.6 | 0.00 | 0.01 | 0.01 | 67 | 1011.5 |
| 20260502120505 | 54 | 275 | 0.0 | 0.9 | 0.00 | 0.01 | 0.01 | 67 | 1011.5 |
| 20260502115006 | 54 | 256 | 0.0 | 2.6 | 0.00 | 0.01 | 0.01 | 66 | 1011.5 |
| 20260502113506 | 54 | 307 | 0.9 | 4.3 | 0.00 | 0.01 | 0.01 | 65 | 1011.5 |
| 20260502113005 | 54 | 326 | 0.9 | 1.7 | 0.00 | 0.01 | 0.01 | 65 | 1011.5 |
| 20260502112506 | 54 | 47 | 0.0 | 1.7 | 0.00 | 0.01 | 0.01 | 66 | 1011.5 |
| 20260502111505 | 54 | 267 | 0.9 | 1.7 | 0.00 | 0.01 | 0.01 | 65 | 1011.5 |
| 20260502111006 | 54 | 22 | 0.9 | 1.7 | 0.00 | 0.01 | 0.01 | 65 | 1011.5 |
| 20260502110506 | 54 | 284 | 0.0 | 1.7 | 0.00 | 0.01 | 0.01 | 65 | 1011.5 |
| 20260502110005 | 54 | 286 | 0.9 | 1.7 | 0.00 | 0.01 | 0.01 | 65 | 1011.5 |
| 20260502105505 | 54 | 294 | 0.0 | 1.7 | 0.00 | 0.01 | 0.01 | 66 | 1011.5 |
| 20260502105005 | 54 | 293 | 0.0 | 1.7 | 0.00 | 0.01 | 0.01 | 66 | 1011.5 |
| 20260502104505 | 54 | 264 | 0.9 | 2.6 | 0.00 | 0.01 | 0.01 | 65 | 1011.5 |
| 20260502104006 | 54 | 288 | 0.9 | 2.6 | 0.00 | 0.01 | 0.01 | 65 | 1011.5 |
| 20260502103506 | 54 | 282 | 0.9 | 1.7 | 0.00 | 0.01 | 0.01 | 65 | 1011.5 |
| 20260502103005 | 54 | 282 | 0.9 | 2.6 | 0.00 | 0.01 | 0.01 | 65 | 1011.5 |
| 20260502102506 | 55 | 281 | 1.7 | 2.6 | 0.00 | 0.01 | 0.01 | 65 | 1011.5 |
| 20260502101505 | 55 | 283 | 0.9 | 2.6 | 0.00 | 0.01 | 0.01 | 65 | 1011.3 |
| 20260502101005 | 55 | 281 | 0.9 | 4.3 | 0.00 | 0.01 | 0.01 | 65 | 1010.4 |
| 20260502100505 | 55 | 294 | 1.7 | 5.2 | 0.00 | 0.01 | 0.01 | 66 | 1010.4 |
| 20260502091505 | 55 | 353 | 1.7 | 2.6 | 0.00 | 0.01 | 0.01 | 69 | 1011.0 |
| 20260502091005 | 55 | 295 | 0.9 | 10.4 | 0.00 | 0.01 | 0.01 | 70 | 1011.0 |
| 20260502090505 | 55 | 280 | 0.9 | 2.6 | 0.00 | 0.01 | 0.01 | 71 | 1011.0 |
| 20260502071005 | 57 | 17 | 0.0 | 2.6 | 0.00 | 0.01 | 0.01 | 81 | 1011.6 |
| 20260502070505 | 57 | 22 | 0.9 | 2.6 | 0.00 | 0.01 | 0.01 | 81 | 1011.6 |
| 20260502070006 | 57 | 20 | 0.9 | 2.6 | 0.00 | 0.01 | 0.01 | 81 | 1011.6 |
| 20260502065505 | 57 | 13 | 1.7 | 2.6 | 0.00 | 0.01 | 0.01 | 81 | 1011.6 |
| 20260502064504 | 57 | 355 | 1.7 | 2.6 | 0.00 | 0.01 | 0.01 | 82 | 1011.6 |
| 20260502064005 | 57 | 32 | 1.7 | 2.6 | 0.00 | 0.01 | 0.01 | 82 | 1012.0 |
| 20260502063504 | 57 | 343 | 0.9 | 2.6 | 0.00 | 0.01 | 0.01 | 83 | 1012.0 |
| 20260502063006 | 57 | 11 | 0.9 | 2.6 | 0.00 | 0.01 | 0.01 | 83 | 1012.0 |
| 20260502062506 | 57 | 350 | 0.9 | 2.6 | 0.01 | 0.01 | 0.01 | 83 | 1012.0 |
| 20260502062005 | 57 | 32 | 0.0 | 2.6 | 0.01 | 0.01 | 0.01 | 84 | 1012.0 |
| 20260502061504 | 57 | 293 | 0.9 | 2.6 | 0.01 | 0.01 | 0.01 | 84 | 1012.0 |
| 20260502061005 | 57 | 268 | 0.0 | 0.0 | 0.01 | 0.01 | 0.01 | 84 | 1012.0 |
| 20260502060006 | 57 | 268 | 0.0 | 0.0 | 0.01 | 0.01 | 0.01 | 84 | 1012.0 |
| 20260502055506 | 57 | 268 | 0.0 | 0.0 | 0.01 | 0.01 | 0.01 | 84 | 1012.0 |
| 20260502055005 | 57 | 265 | 0.0 | 0.0 | 0.01 | 0.01 | 0.01 | 84 | 1012.1 |
| 20260502054505 | 57 | 300 | 0.0 | 0.0 | 0.01 | 0.01 | 0.01 | 84 | 1012.1 |
| 20260502053505 | 58 | 298 | 0.0 | 0.0 | 0.01 | 0.01 | 0.01 | 84 | 1012.1 |
| 20260502053005 | 58 | 298 | 0.0 | 0.0 | 0.01 | 0.01 | 0.01 | 84 | 1012.1 |
| 20260502052505 | 58 | 224 | 0.0 | 0.0 | 0.01 | 0.01 | 0.01 | 83 | 1012.1 |
| 20260502052005 | 58 | 227 | 0.0 | 0.0 | 0.00 | 0.00 | 0.00 | 83 | 1012.1 |
| 20260502051005 | 58 | 144 | 0.0 | 0.0 | 0.00 | 0.00 | 0.00 | 83 | 1012.1 |
| 20260502050505 | 58 | 144 | 0.0 | 0.0 | 0.00 | 0.00 | 0.00 | 82 | 1012.1 |
| 20260502050004 | 58 | 144 | 0.0 | 0.0 | 0.00 | 0.00 | 0.00 | 82 | 1012.1 |
| 20260502045005 | 58 | 144 | 0.0 | 0.0 | 0.00 | 0.00 | 0.00 | 82 | 1012.1 |
| 20260502044505 | 58 | 144 | 0.0 | 0.0 | 0.00 | 0.00 | 0.00 | 81 | 1012.1 |
| 20260502044005 | 58 | 144 | 0.0 | 0.0 | 0.00 | 0.00 | 0.00 | 81 | 1012.1 |
| 20260502043505 | 58 | 144 | 0.0 | 0.0 | 0.00 | 0.00 | 0.00 | 82 | 1012.1 |
| 20260502043006 | 58 | 144 | 0.0 | 0.0 | 0.00 | 0.00 | 0.00 | 82 | 1012.1 |
| 20260502041505 | 58 | 144 | 0.0 | 0.0 | 0.00 | 0.00 | 0.00 | 82 | 1012.1 |
| 20260502041006 | 58 | 130 | 0.0 | 0.0 | 0.00 | 0.00 | 0.00 | 82 | 1012.1 |
| 20260502040506 | 58 | 130 | 0.0 | 0.0 | 0.00 | 0.00 | 0.00 | 82 | 1012.1 |
| 20260502040006 | 58 | 219 | 0.0 | 0.0 | 0.00 | 0.00 | 0.00 | 82 | 1012.1 |
| 20260502035505 | 58 | 219 | 0.0 | 0.0 | 0.00 | 0.00 | 0.00 | 82 | 1012.1 |
| 20260502035005 | 58 | 219 | 0.0 | 0.0 | 0.00 | 0.00 | 0.00 | 82 | 1012.1 |
| 20260502034506 | 59 | 219 | 0.0 | 0.0 | 0.00 | 0.00 | 0.00 | 82 | 1012.1 |
| 20260502034005 | 59 | 219 | 0.0 | 0.0 | 0.00 | 0.00 | 0.00 | 82 | 1012.1 |
| 20260502033505 | 59 | 219 | 0.0 | 0.0 | 0.00 | 0.00 | 0.00 | 82 | 1012.1 |
| 20260502033005 | 59 | 219 | 0.0 | 0.0 | 0.00 | 0.00 | 0.00 | 82 | 1012.1 |
| 20260502032505 | 59 | 219 | 0.0 | 0.0 | 0.00 | 0.00 | 0.00 | 82 | 1012.1 |
| 20260502032006 | 59 | 219 | 0.0 | 0.0 | 0.00 | 0.00 | 0.00 | 81 | 1012.1 |
| 20260502031506 | 59 | 219 | 0.0 | 0.0 | 0.00 | 0.00 | 0.00 | 81 | 1012.1 |
| 20260502031005 | 59 | 219 | 0.0 | 0.0 | 0.00 | 0.00 | 0.00 | 81 | 1012.1 |
| 20260502030505 | 59 | 219 | 0.0 | 0.0 | 0.00 | 0.00 | 0.00 | 81 | 1012.1 |
| 20260502025505 | 59 | 219 | 0.0 | 0.0 | 0.00 | 0.00 | 0.00 | 81 | 1012.1 |
| 20260502025006 | 59 | 219 | 0.0 | 0.0 | 0.00 | 0.00 | 0.00 | 80 | 1012.1 |
| 20260502024005 | 59 | 219 | 0.0 | 0.0 | 0.00 | 0.00 | 0.00 | 80 | 1012.1 |
| 20260502023506 | 60 | 219 | 0.0 | 0.0 | 0.00 | 0.00 | 0.00 | 80 | 1012.1 |
| 20260502022505 | 60 | 219 | 0.0 | 0.0 | 0.00 | 0.00 | 0.00 | 80 | 1012.1 |
| 20260502021505 | 60 | 219 | 0.0 | 0.0 | 0.00 | 0.00 | 0.00 | 81 | 1012.1 |
| 20260502021005 | 60 | 219 | 0.0 | 0.0 | 0.00 | 0.00 | 0.00 | 81 | 1012.1 |
| 20260502020506 | 60 | 216 | 0.0 | 0.0 | 0.00 | 0.00 | 0.00 | 80 | 1012.1 |
| 20260502020004 | 60 | 216 | 0.0 | 0.0 | 0.00 | 0.00 | 0.00 | 80 | 1012.1 |
| 20260502015505 | 60 | 216 | 0.0 | 0.0 | 0.00 | 0.00 | 0.00 | 80 | 1012.1 |
| 20260502014506 | 60 | 300 | 0.0 | 0.0 | 0.00 | 0.00 | 0.00 | 80 | 1012.1 |
| 20260502014005 | 60 | 300 | 0.0 | 0.0 | 0.00 | 0.00 | 0.00 | 81 | 1012.1 |
| 20260502013506 | 60 | 300 | 0.0 | 0.0 | 0.00 | 0.00 | 0.00 | 81 | 1012.1 |
| 20260502013006 | 60 | 300 | 0.0 | 0.0 | 0.00 | 0.00 | 0.00 | 81 | 1012.1 |
| 20260502012506 | 60 | 300 | 0.0 | 0.0 | 0.00 | 0.00 | 0.00 | 82 | 1012.1 |
| 20260502012005 | 60 | 300 | 0.0 | 0.0 | 0.00 | 0.00 | 0.00 | 82 | 1012.1 |
| 20260502011505 | 60 | 300 | 0.0 | 0.0 | 0.00 | 0.00 | 0.00 | 81 | 1012.1 |
| 20260502011004 | 60 | 300 | 0.0 | 0.0 | 0.00 | 0.00 | 0.00 | 82 | 1012.1 |
| 20260502010506 | 60 | 300 | 0.0 | 0.0 | 0.00 | 0.00 | 0.00 | 81 | 1012.1 |
| 20260502010005 | 60 | 300 | 0.0 | 0.0 | 0.00 | 0.00 | 0.00 | 80 | 1012.0 |
| 20260502005505 | 60 | 300 | 0.0 | 0.0 | 0.00 | 0.00 | 0.00 | 80 | 1012.0 |
| 20260502004005 | 61 | 300 | 0.0 | 1.7 | 0.00 | 0.00 | 0.00 | 79 | 1012.0 |
| 20260502003506 | 61 | 300 | 0.0 | 1.7 | 0.00 | 0.00 | 0.00 | 79 | 1012.0 |
| 20260502003005 | 61 | 300 | 0.0 | 0.9 | 0.00 | 0.00 | 0.00 | 79 | 1012.0 |
| 20260502002506 | 61 | 300 | 0.0 | 0.9 | 0.00 | 0.00 | 0.00 | 79 | 1012.0 |
| 20260502002004 | 61 | 300 | 0.0 | 0.0 | 0.00 | 0.00 | 0.00 | 78 | 1012.0 |
| 20260502001504 | 61 | 300 | 0.9 | 2.6 | 0.00 | 0.00 | 0.00 | 78 | 1012.0 |
| 20260502001005 | 62 | 286 | 0.0 | 0.9 | 0.00 | 0.00 | 0.00 | 78 | 1011.6 |
| 20260502000505 | 62 | 286 | 0.0 | 1.7 | 0.00 | 0.00 | 0.00 | 77 | 1011.6 |
| 20260502000006 | 62 | 284 | 0.9 | 2.6 | 0.00 | 0.00 | 0.00 | 76 | 1011.6 |
| 20260501235506 | 62 | 278 | 0.9 | 2.6 | 0.00 | 0.00 | 0.00 | 75 | 1011.6 |
| 20260501235006 | 62 | 299 | 0.0 | 0.9 | 0.00 | 0.00 | 0.00 | 75 | 1011.6 |
| 20260501234505 | 62 | 299 | 0.0 | 0.9 | 0.00 | 0.00 | 0.00 | 73 | 1011.6 |
| 20260501234006 | 63 | 299 | 0.0 | 0.9 | 0.00 | 0.00 | 0.00 | 73 | 1011.6 |
| 20260501233505 | 63 | 299 | 0.9 | 1.7 | 0.00 | 0.00 | 0.00 | 73 | 1011.6 |
| 20260501233006 | 63 | 288 | 0.0 | 0.9 | 0.00 | 0.00 | 0.00 | 73 | 1011.5 |
| 20260501232504 | 63 | 288 | 0.0 | 2.6 | 0.00 | 0.00 | 0.00 | 72 | 1011.5 |
| 20260501232006 | 63 | 296 | 0.0 | 0.9 | 0.00 | 0.00 | 0.00 | 73 | 1011.5 |
| 20260501230005 | 63 | 298 | 0.9 | 2.6 | 0.00 | 0.00 | 0.00 | 70 | 1011.6 |
| 20260501225504 | 64 | 291 | 0.9 | 2.6 | 0.00 | 0.00 | 0.00 | 70 | 1011.6 |
| 20260501225005 | 64 | 270 | 0.0 | 1.7 | 0.00 | 0.00 | 0.00 | 70 | 1011.1 |